Scottsbluff, NE

11:06 PM MST on December 17, 2017 (GMT -0700)
Heilig

Weather History for KBFF - May, 2014

Change the Weather History Date:

Monday, May 5, 2014

  Actual Average Record
Temperature  
Mean Temperature 58 °F 54 °F  
Max Temperature 75 °F 68 °F 95 °F (2004)
Min Temperature 40 °F 39 °F 21 °F (1898)
Degree Days  
Heating Degree Days 7 12  
Month to date heating degree days 46 63  
Since 1 July heating degree days 6406 6356  
Cooling Degree Days 0 0  
Month to date cooling degree days 0 0  
Year to date cooling degree days 0 2  
Growing Degree Days 7 (Base 50)    
Moisture  
Dew Point 44 °F    
Average Humidity 63    
Maximum Humidity 93    
Minimum Humidity 33    
Precipitation  
Precipitation 0.00 in 0.07 in 1.48 in (1969)
Month to date precipitation T 0.33  
Year to date precipitation 3.07 4.17  
Snow  
Snow 0.00 in 0.00 in 1.30 in (1967)
Month to date snowfall 0.0 0.2  
Since 1 July snowfall 61.5 41.8  
Snow Depth 0.00 in    
Sea Level Pressure  
Sea Level Pressure 29.72 in    
Wind  
Wind Speed 10 mph (SE)    
Max Wind Speed 18 mph    
Max Gust Speed 29 mph    
Visibility 10 miles    
Events      
T = Trace of Precipitation, MM = Missing Value Source: NWS Daily Summary

Daily Weather History Graph

Daily Weather History Graph

Search for Another Location

Airport or City:

Trip Planner

Search our weather history database for the weather conditions in past years. The results will help you decide how hot, cold, wet, or windy it might be!

Date:

Astronomy

May. 05, 2014 Rise Set
Actual Time 5:45 AM MDT 7:57 PM MDT
Civil Twilight 5:14 AM MDT 8:28 PM MDT
Nautical Twilight 4:36 AM MDT 9:06 PM MDT
Astronomical Twilight 3:55 AM MDT 9:48 PM MDT
Moon 11:07 AM MDT (5/5) 12:42 AM MDT (5/5)
Length of Visible Light 15h 13m
Length of Day
14h 11m
Waxing Crescent, 37% of the Moon is Illuminated
May 5
Waxing Crescent
May 6
First Quarter
May 14
Full
May 21
Last Quarter
May 28
New

Hourly Weather History & Observations

Time (MDT) Temp. Windchill Dew Point Humidity Pressure Visibility Wind Dir Wind Speed Gust Speed Precip Events Conditions
12:53 AM 48.0 °F - 42.1 °F 80% 29.79 in 10.0 mi East 9.2 mph - N/A   Clear
1:53 AM 46.9 °F - 41.0 °F 80% 29.78 in 10.0 mi SE 4.6 mph - N/A   Clear
2:53 AM 44.1 °F 40.8 °F 39.0 °F 82% 29.77 in 10.0 mi ESE 5.8 mph - N/A   Clear
3:53 AM 41.0 °F 37.1 °F 37.9 °F 89% 29.78 in 10.0 mi East 5.8 mph - N/A   Clear
4:53 AM 41.0 °F 35.8 °F 37.9 °F 89% 29.78 in 9.0 mi East 8.1 mph - N/A   Clear
5:53 AM 41.0 °F 36.4 °F 39.0 °F 93% 29.79 in 7.0 mi East 6.9 mph - N/A   Clear
6:53 AM 46.0 °F - 42.1 °F 86% 29.80 in 8.0 mi Calm Calm - N/A   Clear
7:53 AM 48.9 °F - 43.0 °F 80% 29.81 in 9.0 mi SSE 6.9 mph - N/A   Clear
8:53 AM 53.1 °F - 44.1 °F 71% 29.80 in 10.0 mi SSE 9.2 mph - N/A   Clear
9:53 AM 57.0 °F - 45.0 °F 64% 29.80 in 10.0 mi SE 9.2 mph - N/A   Clear
10:53 AM 60.1 °F - 46.0 °F 60% 29.78 in 10.0 mi SE 11.5 mph - N/A   Clear
11:53 AM 64.4 °F - 48.2 °F 56% 29.85 in 10.0 mi ESE 12.7 mph - N/A   Clear
12:53 PM 68.0 °F - 48.9 °F 50% 29.75 in 10.0 mi SE 13.8 mph - N/A   Clear
1:53 PM 69.1 °F - 50.0 °F 51% 29.73 in 10.0 mi SE 15.0 mph - N/A   Clear
2:53 PM 72.0 °F - 50.0 °F 46% 29.69 in 10.0 mi SE 15.0 mph - N/A   Clear
3:53 PM 73.9 °F - 48.9 °F 41% 29.65 in 10.0 mi SE 11.5 mph - N/A   Clear
4:53 PM 75.0 °F - 45.0 °F 34% 29.63 in 10.0 mi SSE 15.0 mph - N/A   Clear
5:53 PM 73.9 °F - 45.0 °F 35% 29.61 in 10.0 mi SE 15.0 mph - N/A   Clear
6:53 PM 71.1 °F - 46.9 °F 42% 29.60 in 10.0 mi ESE 11.5 mph - N/A   Clear
7:53 PM 68.0 °F - 46.9 °F 47% 29.59 in 10.0 mi ESE 13.8 mph - N/A   Clear
8:53 PM 66.2 °F - 46.4 °F 49% 29.69 in 10.0 mi SE 15.0 mph - N/A   Clear
9:53 PM 59.0 °F - 44.6 °F 59% 29.71 in 10.0 mi ESE 8.1 mph - N/A   Clear
10:53 PM 59.0 °F - 44.1 °F 58% 29.62 in 10.0 mi SE 15.0 mph - N/A   Clear
11:53 PM 55.9 °F - 44.1 °F 64% 29.61 in 10.0 mi ESE 10.4 mph - N/A   Clear